EUTELSAT 7A

Last updated on Tue Oct 15 2024 00:02:37 GMT+0000 (Coordinated Universal Time)

1 28187U 04008A 24288.53243860 .00000106 00000+0 00000+0 0 9998 2 28187 4.2681 79.2108 0005323 162.6164 194.2518 1.00273296 75221
UTC large
Height (km)
Speed (km/s)
/
Latitude / Longitude
Inclination (degrees)
Orbital Period (minutes)
Azimuth
Elevation
Range (km)
Doppler Factor

Next 0 passes for location: London (51.5072 / 0.1276)

Sorry there are no passes over London.